User: anonymous   Login
Location: Unspecified
(0.0000°N, 0.0000°E)
Time: 08:01:23
(UTC+00:00)
Language:

SIRIUSSAT-2 - Orbit

View from above orbital plane
View from above orbital plane
View from above satellite
View from above satellite

Ground track
Ground track

The orbit data is extracted from the following two-line orbital elements,

1 43596U 98067PH  20223.92558114 +.00038997 +00000-0 +22862-3 0  9990
2 43596 051.6285 011.4157 0002537 297.5152 062.5591 15.77895861113609
Epoch (UTC): 10 August 2020 22:12:50
Eccentricity: 0.0002537
inclination: 51.6285°
perigee height: 335 km
apogee height: 338 km
right ascension of ascending node: 11.4157°
argument of perigee: 297.5152°
revolutions per day: 15.77895861
mean anomaly at epoch: 62.5591°
orbit number at epoch: 11360

The dashed part of the orbit path shows where the satellite is in the earth's shadow,  

DLR